Regional Weather Roundup
Issued by NWS Little Rock, AR

Home | Current Version | Previous Version | Text Only | Print | Product List | Glossary Off
Versions: 1 2 3 4 5 6 7 8 9 10 11 12 13 14 15 16 17 18 19 20 21 22 23 24 25 26 27 28 29 30 31 32 33 34 35 36 37 38 39 40 41 42 43 44 45 46 47 48 49 50

408
ASUS44 KLZK 200105
RWRLZK

WEATHER ROUNDUP FOR ARKANSAS
NATIONAL WEATHER SERVICE LITTLE ROCK AR
700 PM CST SUN NOV 19 2017

NOTE: "FAIR" INDICATES FEW OR NO CLOUDS BELOW 12,000 FEET WITH NO
SIGNIFICANT WEATHER AND/OR OBSTRUCTIONS TO VISIBILITY.

ARZ001-003-010-029-200200-
NORTHWEST ARKANSAS

CITY           SKY/WX    TMP DP  RH WIND       PRES   REMARKS
FAYETTEVILLE   CLEAR     36  30  79 CALM      30.21R
FORT SMITH     CLEAR     46  32  58 W3        30.22S
HARRISON       CLEAR     42  24  49 CALM      30.21R
BENTONVILLE    CLEAR     42  28  57 CALM      30.22S
ROGERS         PTCLDY    42  28  57 S3        30.21R
SILOAM SPGS    CLEAR     44  26  49 CALM      30.21S
HIGHFILL       PTCLDY    39  27  62 CALM      30.21R
SPRINGDALE     CLEAR     41  28  60 CALM      30.22S
$$

ARZ004-005-016-200200-
NORTH CENTRAL ARKANSAS

CITY           SKY/WX    TMP DP  RH WIND       PRES   REMARKS
BATESVILLE     CLEAR     40  23  50 CALM      30.23R
FLIPPIN        CLEAR     42  25  50 CALM      30.23R
MTN HOME       CLEAR     42  23  46 CALM      30.21R
$$

ARZ040-041-200200-
WEST CENTRAL ARKANSAS

CITY           SKY/WX    TMP DP  RH WIND       PRES   REMARKS
MENA           CLEAR     39  30  70 CALM      30.23S
MOUNT IDA      CLEAR     44  28  53 CALM      30.21R
$$

ARZ009-017-025-026-028-200200-
NORTHEAST ARKANSAS

CITY           SKY/WX    TMP DP  RH WIND       PRES   REMARKS
CORNING        FAIR      43  23  45 CALM      30.22S
JONESBORO      CLEAR     37  28  70 NE3       30.23R
NEWPORT        CLEAR     41  26  55 NE5       30.24R
WALNUT RIDGE     N/A    N/A N/A N/A MISG        N/A
BLYTHEVILLE    CLEAR     37  29  72 E5        30.24R
$$

ARZ022-023-033-042-044-200200-
CENTRAL ARKANSAS

CITY           SKY/WX    TMP DP  RH WIND       PRES   REMARKS
LITTLE ROCK    PTCLDY    45  29  53 CALM      30.24R
N LITTLE ROCK    N/A     48  22  36 CALM      30.26R
JACKSONVILLE   CLEAR     40  27  60 CALM      30.22R
SEARCY         CLEAR     38  26  62 W3        30.23S
HOT SPRINGS    CLEAR     46  28  49 CALM      30.23R
RUSSELLVILLE   CLEAR     39  30  70 SE3       30.21S
CLINTON        FAIR      37  30  75 CALM      30.23R
$$

ARZ036-200200-
EAST ARKANSAS

CITY           SKY/WX    TMP DP  RH WIND       PRES   REMARKS
WEST MEMPHIS   CLEAR     36  29  75 CALM      30.22R
$$

ARZ050-053-066-070-073-200200-
SOUTHWEST ARKANSAS

CITY           SKY/WX    TMP DP  RH WIND       PRES   REMARKS
ARKADELPHIA    FAIR      39  32  76 CALM      30.25R
CAMDEN         CLEAR     41  30  65 CALM      30.24R
TEXARKANA      CLEAR     48  35  60 SW3       30.24R
EL DORADO      CLEAR     42  37  82 CALM      30.24R
DE QUEEN       CLEAR     44  34  67 CALM      30.22R
$$

ARZ056-057-069-200200-
SOUTHEAST ARKANSAS

CITY           SKY/WX    TMP DP  RH WIND       PRES   REMARKS
PINE BLUFF     CLEAR     45  26  47 CALM      30.24R
STUTTGART      CLEAR     45  29  53 N5        30.23S
MONTICELLO     CLEAR     42  31  64 CALM      30.23R

$$






USA.gov is the U.S. government's official web portal to all federal, state and local government web resources and services.